THOR ABLESTAR DEB, 3744

Orbit data source: Space-Track

THOR ABLESTAR DEB, 3744 is space debris in LEO originally from a launch on Thu, 29 Jun 1961 UTC launched from the Air Force Eastern Test Range (AFETR). Debris objects in space refer to the collection of defunct objects orbiting the Earth. Examples of debris include non-operational satellites, rocket bodies, and fragments generated from explosions, collisions, or faulty payload assembly.

Loading next visibility...
Identifier
3744, 1961-015JC
Orbit
LEO
Country
Flag of USUS
Related business
Manufacturer
Unknown
Mission
Spacecraft
Bus & Motor
Unknown
Mass
Unknown
Launch date (UTC)
1961-06-29 (64 years ago)
Launch vehicle
Unknown
Launch site
Air Force Eastern Test Range (AFETR)
Object type
Payload
Rocket body
Debris
Shape & HBR
Unknown shape, 0.1 m
Radar Cross Section
Small (<0.1 m²)

Expand to show TLE details & history
Last TLE update: 12 hours ago

TLE from 12 hours ago
0 THOR ABLESTAR DEB
1  3744U 61015JC  25298.48842850  .00004587  00000-0  29284-2 0  9997
2  3744  66.9767 331.9747 0134011 278.8619  79.7313 14.00016246847650
Epoch: 2025-10-25T11:43Z
TLE epoch observation values (Epoch: 2025-10-25T11:43:20.222Z)
Latitude
-0.00002°
Longitude
122.02218°
Altitude
879.733 km
Speed
7.421 km/s
True Right ascension
22h 07m 53s
True Declination
0° 00' 00"
Sunlit
Object was in full shadow at epoch
Visualization orbit readout
Latitude
Unknown
Longitude
Unknown
Altitude
Unknown
Speed
Unknown
Apparent Right ascension
Unknown
Apparent Declination
Unknown
Sunlit
N/A
Visualization observer readout
Local Sidereal Time
18:32:14
Azimuth
Unknown
Elevation
Unknown
Doppler factor
Unknown
Orbital elements
Apogee altitude
989.534 km
Perigee altitude
794.675 km
Semi-major axis
7,270.242 km
Eccentricity
0.0134
Inclination
66.9767°
RAAN
331.9747°
Arg. of periapsis
278.8619°
True anomaly
81.2467°
Mean anomaly
79.7313°
Eccentric anomaly
80.48857°
Mean motion
3.50122 °/min
Orbital period
102.82 mins
BSTAR
0.0029284
Loading maneuver chart data...
Computing Atmospheric mass density...

Documentation

Showing up to 5 results
|